Overview Statistics Trail Chart Weather Telemetry Raw packets
 

This is the latest recevied weather packets stored in our database for station/object K4KMJ. If no packets are shown the sender has not sent any weather packets the latest 10 day(s).

<< 57 58 59 60 61 62 63 >>
Time Temp. Humidity Pressure Rain* Wind** Luminosity Snow
1788279476 28.33° C 92% 1019.8 hPa 0 mm - 261 W/m² -
1788279176 28.33° C 92% 1019.9 hPa 0 mm - 266 W/m² -
1788278872 27.78° C 92% 1019.9 hPa 0 mm - 319 W/m² -
1788278568 27.78° C 92% 1019.8 hPa 0 mm - 301 W/m² -
1788278267 28.33° C 91% 1019.8 hPa 0 mm - 333 W/m² -
1788277962 28.33° C 90% 1019.8 hPa 0 mm - 346 W/m² -
1788274543 30.56° C 85% 1019.3 hPa 0 mm - 663 W/m² -
1788274237 30.56° C 85% 1019.3 hPa 0 mm - 663 W/m² -
1788273933 30.56° C 86% 1019.2 hPa 0 mm - 661 W/m² -
1788273627 30° C 87% 1019.2 hPa 0 mm - 660 W/m² -
1788273327 29.44° C 88% 1019.3 hPa 0 mm - 675 W/m² -
1788273019 29.44° C 89% 1019.3 hPa 0 mm - 129 W/m² -
1788272714 28.89° C 89% 1019.4 hPa 0 mm - 129 W/m² -
1788272409 29.44° C 90% 1019.6 hPa 0 mm - 641 W/m² -
1788272109 28.89° C 90% 1019.3 hPa 0 mm - 535 W/m² -
1788271804 30° C 89% 1019.2 hPa 0 mm - 135 W/m² -
1788271503 30° C 89% 1019.5 hPa 0 mm - 538 W/m² -
1788271196 30° C 90% 1019.2 hPa 0 mm - 529 W/m² -
1788270896 30° C 90% 1019.3 hPa 0 mm - 504 W/m² -
1788270592 29.44° C 91% 1019.2 hPa 0 mm - 422 W/m² -
1788270288 29.44° C 92% 1019.2 hPa 0 mm - 409 W/m² -
1788269982 28.89° C 93% 1018.9 hPa 0 mm - 383 W/m² -
1788269681 28.89° C 93% 1019.1 hPa 0 mm - 359 W/m² -
1788269380 29.44° C 94% 1019 hPa 0 mm - 340 W/m² -
1788269074 28.89° C 95% 1019.1 hPa 0 mm - 320 W/m² -

* Rain latest hour (hover to see other rain measurements)
** Current wind speed in m/s (hover to see current wind gust speed)